Погода в Ивантеевке

Россия / Московская область     55°58′18″N   37°55′27″E
темп.,
°C
ветер,
м/с
пор.,
м/с
влажн.,
%
обл.,
%
осадки,
мм/ч
давл.,
гПа
погр.,
м
7 мая, пт
пт700:00+7юз41086100 0.0 1007713
03:00+5юз3892100 0.0 1008329
06:00+5юз3991100 0.0 1009517
09:00+9зюз476012 0.0 10101184
12:00+12з57428 0.1 10112240
15:00+13зюз683684 0.1 10112580
18:00+12зюз264864 0.0 10111465
21:00+7ююв3466100 0.0 101272
8 мая, сб
сб800:00+7ююв41267100 0.0 1012354
03:00+8ююв41463100 0.0 1011663
06:00+7ююв61486100 1.6 10101220
09:00+7ююв61494100 8.1 10081279
12:00+8юв61395100 5.8 10061328
15:00+8ююв41197100 11.3 1004852
18:00+8юв1599100 4.3 1003315
21:00+8с2599100 6.2 1002199
9 мая, вс
вс900:00+7с3798100 2.3 1003341
03:00+7ссз4997100 2.5 1004553
06:00+5ссз61295100 0.5 1006797
09:00+3ссз71597100 3.2 1009778
12:00+6сз61087100 1.5 10131045
15:00+9ссз6106862 1.6 10151623
18:00+10с410585 0.0 10171845
21:00+5ссз11815 0.0 102110
10 мая, пн
пн1000:00+3ссз22885 0.0 102323
03:00+2ссз35884 0.0 102696
06:00+4ссз25812 0.0 1028131
09:00+11с24515 0.0 1028738
12:00+14с233786 0.0 10291369
15:00+15с33351 0.0 10281472
18:00+15ссв24485 0.0 1029409
21:00+8всв22700 0.0 103012
11 мая, вт
вт1100:00+7всв22750 0.0 103121
03:00+6всв22762 0.0 103118
06:00+7всв257672 0.0 1031117
09:00+13в3654100 0.0 1031541
12:00+16всв4642100 0.0 10311047
15:00+18в4543100 0.0 10291175
18:00+16в365895 0.0 1029435
21:00+12всв3778100 0.0 1029126